[[{"header":{"parameterUnit":"m.s-1","parameterCategory":1,"la1":30.2991,"la2":30.254,"lo1":-89.0895,"lo2":-89.0444,"dy":0.0017,"dx":0.0017,"nx":28,"ny":28,"refTime":"2023-08-05T03:00:00:Z","depth":0,"parameterNumber":2,"parameterNumberName":"U-component_of_WINDS"},"data":[0,0,0,0,0,0,0,0,0,0,0,0,0,0,0,0,0,0,0,0,0,0,0,0,0,0,0,0,0,0,0,0,0,0,0,0,0,0,0,0,0,0,0,0,0,0,0,0,0,0,0,0,0,0,0,0,0,0,3.3478,3.3478,0,3.3524,3.3524,3.3525,3.3499,3.3498,3.3496,3.3495,3.3543,3.3545,3.3547,0,0,0,0,0,0,0,0,0,0,0,0,0,3.3368,3.337,3.3477,3.3478,3.3479,3.3524,3.3525,3.3525,3.3499,3.3498,3.3496,3.3495,3.3542,3.3545,3.3548,0,0,0,0,0,0,0,0,0,0,0,0,0,3.3415,3.3371,3.3477,3.3471,3.3471,3.3524,3.3525,3.3525,3.35,3.3498,3.3496,3.3494,3.3541,3.3544,3.3548,3.3609,0,0,3.3559,3.3561,0,0,0,0,0,0,0,0,3.3412,3.3419,3.3471,3.3472,3.3472,3.3504,3.3503,3.3554,3.35,3.3489,3.3495,3.3493,3.3531,3.3536,3.3548,3.3612,3.3614,3.356,3.3562,3.3563,3.3564,0,0,0,0,0,0,0,3.3409,3.3417,3.3496,3.3472,3.3472,3.3467,3.3471,3.3513,3.352,3.349,3.3488,3.3494,3.3531,3.3545,3.3549,3.3614,3.356,3.3563,3.3565,3.3567,3.3733,3.3735,0,0,0,0,0,0,3.3406,3.3414,3.3494,3.3497,3.3437,3.347,3.3475,3.3495,3.352,3.3522,3.3495,3.3492,3.354,3.3545,3.3551,3.3626,3.3563,3.3567,3.3569,3.3731,3.3734,3.3736,0,0,0,0,0,0,3.3404,3.3414,3.3492,3.3455,3.3465,3.3474,3.3497,3.3497,3.3511,3.3524,3.3525,3.3508,3.3538,3.3546,3.3596,3.3628,3.3569,3.3572,3.3729,3.3732,3.3735,3.3776,0,0,0,0,0,0,3.3401,3.3413,3.3436,3.3456,3.3467,3.3536,3.3499,3.35,3.3518,3.3514,3.3536,3.3538,3.3537,3.359,3.3599,3.3632,3.3575,3.3726,3.373,3.3734,3.3772,3.3781,3.3788,0,0,0,0,0,3.3397,3.3445,3.3437,3.3447,3.3496,3.3538,3.3544,3.3542,3.352,3.3544,3.3553,3.3538,3.3623,3.3596,3.3606,3.3639,3.3724,3.3729,3.3734,3.3769,3.3779,3.3788,0,0,0,0,0,0,3.3427,3.3447,3.3439,3.3494,3.3515,3.3533,3.3563,3.3553,3.3579,3.3575,3.3572,3.3577,3.3629,3.3639,3.3609,3.3702,3.367,3.3677,3.3693,3.3703,3.3711,3.3707,3.3578,0,0,0,0,0,3.344,3.3472,3.3488,3.3536,3.3547,3.3553,3.3571,3.3569,3.3589,3.3598,3.361,3.3631,3.3663,3.3683,3.3713,3.3774,3.3779,3.3802,3.381,3.3816,3.3823,3.3858,3.3869,3.3753,3.3753,3.3752,0,0,3.3467,3.3483,3.3503,3.3543,3.3558,3.3592,3.356,3.3597,3.3623,3.3603,3.3652,3.3662,3.3685,3.3741,3.3767,3.3751,3.3856,3.3823,3.3828,3.3831,3.3864,3.3875,3.3885,3.3756,3.3755,3.3755,0,0,3.3535,3.3549,3.3591,3.3608,3.3632,3.3637,3.3647,3.3668,3.3674,3.3723,3.3709,3.374,3.3794,3.3812,3.3828,3.3906,3.3894,3.3916,3.3957,3.3992,3.4001,3.4009,3.4038,3.4049,3.3922,3.3922,3.3922,0,3.3566,3.3617,3.3614,3.3653,3.3672,3.3657,3.37,3.3717,3.3749,3.3763,3.3745,3.3815,3.3829,3.3891,3.391,3.3923,3.3936,3.3913,3.4,3.4008,3.4015,3.4044,3.4054,3.3925,3.3925,3.3924,3.3924,0,3.3654,3.369,3.3721,3.3755,3.3777,3.3818,3.3823,3.3846,3.3842,3.3849,3.39,3.3917,3.3951,3.3966,3.3961,3.4027,3.4017,3.4,3.3968,3.4029,3.4056,3.4066,3.3929,3.3928,3.3927,3.3926,0,0,3.374,3.3774,3.3785,3.3801,3.3828,3.3856,3.3897,3.3931,3.3952,3.3976,3.4011,3.4059,3.4044,3.4062,3.406,3.4091,3.4154,3.407,3.407,3.4086,3.423,3.4244,3.4256,3.4146,3.4148,3.415,3.4229,0,3.381,3.3883,3.3883,3.395,3.3985,3.3972,3.4008,3.403,3.4038,3.4068,3.4077,3.4112,3.4088,3.41,3.4129,3.414,3.4183,3.4134,3.418,3.4182,3.4175,3.4269,3.4283,3.4357,3.4239,3.4241,3.4242,0,3.3902,3.393,3.4001,3.4025,3.4039,3.4072,3.4105,3.4134,3.4159,3.4163,3.4185,3.4179,3.4223,3.419,3.4251,3.4218,3.4237,3.4245,3.4248,3.4253,3.4216,3.4278,3.438,3.4391,3.4258,3.4256,3.4255,0,3.3959,3.4015,3.4065,3.4079,3.4108,3.4132,3.4145,3.4168,3.4189,3.4218,3.4232,3.4265,3.4284,3.431,3.4314,3.429,3.4377,3.4343,3.4382,3.4382,3.4401,3.4399,3.4509,3.4412,3.4412,3.4412,3.4411,0,3.4038,3.4082,3.4091,3.4122,3.4172,3.4173,3.4223,3.4234,3.4255,3.4289,3.428,3.4312,3.4315,3.4348,3.4352,3.4403,3.4411,3.4416,3.4417,3.4417,3.4417,3.443,3.4425,3.4414,3.4414,3.4413,3.4413,0,3.411,3.4118,3.4172,3.4197,3.4204,3.424,3.4261,3.4291,3.4299,3.4342,3.4353,3.4365,3.4405,3.4411,3.4457,3.4459,3.4521,3.4516,3.4513,3.4513,3.4551,3.4548,3.4673,3.469,3.4582,3.4583,3.4584,0,3.416,3.4194,3.4223,3.4245,3.426,3.4296,3.4318,3.4321,3.4345,3.4377,3.4404,3.4443,3.4473,3.4537,3.4551,3.4586,3.4582,3.4624,3.4588,3.4588,3.4585,3.4583,3.4587,3.4631,3.4632,3.4633,3.4634,0,3.4249,3.4252,3.4284,3.4319,3.4346,3.4374,3.44,3.4419,3.4425,3.4453,3.4493,3.4517,3.4565,3.4604,3.464,3.4654,3.4646,3.4645,3.4656,3.4658,3.4655,3.4658,3.4533,3.4642,3.4641,3.4641,3.464,3.464,3.4312,3.4343,3.4369,3.4406,3.4426,3.4451,3.4482,3.4495,3.4528,3.4568,3.4568,3.4613,3.4639,3.4686,3.4704,3.4739,3.4726,3.4742,3.4746,3.475,3.4754,3.4649,3.4746,3.4746,3.4745,3.4745,3.4745,0,3.4401,3.4418,3.4452,3.449,3.452,3.451,3.4539,3.4565,3.4604,3.463,3.4661,3.4709,3.4747,3.4765,3.4803,3.4828,3.4826,3.4838,3.4837,3.4841,3.4763,3.475,3.484,3.484,3.484,3.484,3.484,3.484,3.4451,3.4503,3.451,3.4573,3.4589,3.4633,3.4651,3.4675,3.4695,3.4749,3.4781,3.4793,3.4816,3.4856,3.4891,3.4895,3.491,3.4925,3.4928,3.4855,3.4846,3.4836,3.4825,3.4928,3.4928,3.5003,3.5003,3.5004]},{"header":{"parameterUnit":"m.s-1","parameterCategory":1,"la1":30.2991,"la2":30.254,"lo1":-89.0895,"lo2":-89.0444,"dy":0.0017,"dx":0.0017,"nx":28,"ny":28,"refTime":"2023-08-05T03:00:00:Z","depth":0,"parameterNumber":3,"parameterNumberName":"V-component_of_WINDS"},"data":[0,0,0,0,0,0,0,0,0,0,0,0,0,0,0,0,0,0,0,0,0,0,0,0,0,0,0,0,0,0,0,0,0,0,0,0,0,0,0,0,0,0,0,0,0,0,0,0,0,0,0,0,0,0,0,0,0,0,-1.3823,-1.3824,0,-1.387,-1.387,-1.3871,-1.3884,-1.3884,-1.3884,-1.3883,-1.3931,-1.3932,-1.3934,0,0,0,0,0,0,0,0,0,0,0,0,0,-1.3748,-1.3749,-1.3823,-1.3824,-1.3824,-1.3869,-1.387,-1.3871,-1.3884,-1.3884,-1.3884,-1.3883,-1.3931,-1.3932,-1.3934,0,0,0,0,0,0,0,0,0,0,0,0,0,-1.3786,-1.375,-1.3823,-1.3837,-1.3838,-1.3869,-1.387,-1.3871,-1.3884,-1.3884,-1.3884,-1.3883,-1.393,-1.3932,-1.3934,-1.3955,0,0,-1.3941,-1.3942,0,0,0,0,0,0,0,0,-1.3784,-1.3789,-1.3834,-1.3836,-1.3838,-1.3871,-1.3861,-1.3899,-1.3884,-1.3867,-1.3883,-1.3883,-1.3911,-1.3915,-1.3924,-1.3958,-1.396,-1.3941,-1.3943,-1.3944,-1.3944,0,0,0,0,0,0,0,-1.3781,-1.3787,-1.3842,-1.3835,-1.3837,-1.3841,-1.3846,-1.3868,-1.389,-1.3868,-1.3869,-1.3875,-1.3912,-1.3922,-1.3926,-1.396,-1.3941,-1.3943,-1.3945,-1.3946,-1.4016,-1.4016,0,0,0,0,0,0,-1.3776,-1.3785,-1.384,-1.3843,-1.3809,-1.3842,-1.3848,-1.386,-1.389,-1.3894,-1.3875,-1.3875,-1.3919,-1.3923,-1.3927,-1.3956,-1.3944,-1.3946,-1.3947,-1.4015,-1.4016,-1.4016,0,0,0,0,0,0,-1.3775,-1.3781,-1.3838,-1.3814,-1.3822,-1.3844,-1.3858,-1.3862,-1.3872,-1.3895,-1.3899,-1.3881,-1.3919,-1.3924,-1.3949,-1.3957,-1.3947,-1.3949,-1.4015,-1.4015,-1.4016,-1.4011,0,0,0,0,0,0,-1.3772,-1.378,-1.3788,-1.3814,-1.3823,-1.3858,-1.3858,-1.3863,-1.3876,-1.3876,-1.3902,-1.3906,-1.3919,-1.3946,-1.3951,-1.396,-1.3951,-1.4014,-1.4015,-1.4016,-1.4011,-1.4012,-1.4013,0,0,0,0,0,-1.377,-1.3784,-1.3788,-1.3795,-1.3833,-1.3859,-1.3864,-1.3878,-1.3876,-1.3885,-1.39,-1.3905,-1.3956,-1.3948,-1.3954,-1.3964,-1.4014,-1.4015,-1.4016,-1.401,-1.4012,-1.4013,0,0,0,0,0,0,-1.3758,-1.3788,-1.3793,-1.3816,-1.3835,-1.3861,-1.3872,-1.3878,-1.3898,-1.3898,-1.3914,-1.392,-1.3944,-1.3957,-1.3948,-1.3988,-1.3985,-1.3987,-1.3978,-1.398,-1.3981,-1.3977,-1.3952,0,0,0,0,0,-1.3758,-1.3777,-1.3802,-1.382,-1.3829,-1.3849,-1.3861,-1.387,-1.389,-1.3898,-1.3915,-1.3935,-1.3955,-1.3968,-1.3988,-1.4013,-1.402,-1.4023,-1.4024,-1.4025,-1.4027,-1.4043,-1.4045,-1.402,-1.402,-1.402,0,0,-1.3759,-1.3778,-1.3788,-1.3819,-1.3834,-1.3853,-1.3856,-1.3875,-1.389,-1.3901,-1.3926,-1.3939,-1.3962,-1.3988,-1.3999,-1.3999,-1.4035,-1.4026,-1.4026,-1.4028,-1.4044,-1.4046,-1.4049,-1.4021,-1.4021,-1.4021,0,0,-1.377,-1.3786,-1.3804,-1.3819,-1.3843,-1.3857,-1.3861,-1.3887,-1.3896,-1.3921,-1.3931,-1.3949,-1.3983,-1.3999,-1.4012,-1.4032,-1.4038,-1.4038,-1.4043,-1.4058,-1.406,-1.4062,-1.4071,-1.4073,-1.404,-1.404,-1.404,0,-1.3768,-1.3797,-1.3812,-1.3832,-1.3845,-1.3857,-1.3876,-1.3891,-1.392,-1.393,-1.3928,-1.3973,-1.3989,-1.4019,-1.4025,-1.4034,-1.4041,-1.4035,-1.4059,-1.4061,-1.4063,-1.4071,-1.4074,-1.404,-1.404,-1.404,-1.404,0,-1.3794,-1.3814,-1.3825,-1.3854,-1.3869,-1.3888,-1.3907,-1.3921,-1.3929,-1.3943,-1.397,-1.399,-1.4015,-1.4023,-1.4031,-1.4055,-1.4054,-1.4055,-1.4053,-1.4065,-1.4073,-1.4076,-1.404,-1.404,-1.404,-1.404,0,0,-1.3798,-1.3836,-1.384,-1.3854,-1.3882,-1.3898,-1.3918,-1.3943,-1.3955,-1.3975,-1.3994,-1.4024,-1.4026,-1.4041,-1.4051,-1.4065,-1.4081,-1.4065,-1.4066,-1.4068,-1.4111,-1.411,-1.4113,-1.4085,-1.4086,-1.4086,-1.4109,0,-1.3813,-1.385,-1.3865,-1.3895,-1.3915,-1.3927,-1.3945,-1.3965,-1.3979,-1.3998,-1.4014,-1.4035,-1.4036,-1.4045,-1.4059,-1.4076,-1.409,-1.4075,-1.4104,-1.4104,-1.4098,-1.4117,-1.4115,-1.4136,-1.4112,-1.4113,-1.4113,0,-1.3835,-1.3857,-1.3889,-1.3917,-1.3925,-1.3941,-1.3966,-1.3984,-1.4008,-1.4017,-1.4034,-1.4045,-1.4068,-1.4064,-1.4097,-1.4086,-1.4099,-1.411,-1.4111,-1.4114,-1.411,-1.4122,-1.4142,-1.4146,-1.4118,-1.4118,-1.4117,0,-1.3837,-1.3873,-1.3898,-1.3909,-1.3941,-1.3953,-1.3967,-1.399,-1.4005,-1.4027,-1.4037,-1.4061,-1.4075,-1.4094,-1.4111,-1.4106,-1.4143,-1.414,-1.4152,-1.4152,-1.4159,-1.4159,-1.4183,-1.4167,-1.4167,-1.4167,-1.4166,0,-1.3852,-1.3872,-1.3899,-1.3914,-1.3937,-1.3955,-1.3977,-1.3992,-1.4013,-1.4032,-1.4044,-1.4062,-1.4083,-1.4104,-1.4117,-1.4144,-1.4149,-1.4158,-1.4162,-1.4158,-1.4157,-1.4167,-1.4166,-1.4167,-1.4167,-1.4167,-1.4167,0,-1.3857,-1.3876,-1.3904,-1.3933,-1.3941,-1.3956,-1.3982,-1.3997,-1.4013,-1.4037,-1.4043,-1.4067,-1.4093,-1.4112,-1.4144,-1.4154,-1.4182,-1.4185,-1.4174,-1.4176,-1.4188,-1.4187,-1.422,-1.4226,-1.4204,-1.4204,-1.4205,0,-1.3866,-1.3882,-1.3913,-1.3927,-1.3941,-1.3963,-1.3978,-1.3997,-1.4013,-1.4042,-1.4055,-1.4081,-1.4103,-1.4143,-1.4164,-1.4189,-1.4194,-1.4204,-1.4198,-1.4194,-1.4196,-1.4195,-1.4197,-1.4205,-1.4205,-1.4205,-1.4205,0,-1.3881,-1.389,-1.3911,-1.3937,-1.3955,-1.3976,-1.3998,-1.4008,-1.4031,-1.4049,-1.4075,-1.4092,-1.4126,-1.4153,-1.4181,-1.4196,-1.4205,-1.4207,-1.4211,-1.4207,-1.4201,-1.4206,-1.4177,-1.4206,-1.4206,-1.4206,-1.4206,-1.4206,-1.3888,-1.3904,-1.3929,-1.3953,-1.3971,-1.3991,-1.4008,-1.4026,-1.4048,-1.4078,-1.4088,-1.4116,-1.4141,-1.4179,-1.4195,-1.4218,-1.4218,-1.4224,-1.4226,-1.4227,-1.4227,-1.4197,-1.4223,-1.4223,-1.4223,-1.4223,-1.4223,0,-1.3904,-1.3922,-1.3944,-1.3974,-1.3994,-1.4,-1.4025,-1.4041,-1.4065,-1.4088,-1.411,-1.4141,-1.4168,-1.4191,-1.4219,-1.4233,-1.4238,-1.424,-1.4239,-1.4243,-1.4225,-1.4219,-1.4235,-1.4235,-1.4235,-1.4235,-1.4235,-1.4235,-1.3915,-1.3942,-1.3954,-1.399,-1.4008,-1.4035,-1.4049,-1.4068,-1.4086,-1.4121,-1.4143,-1.4158,-1.4182,-1.4212,-1.4237,-1.4244,-1.4254,-1.4255,-1.4262,-1.4245,-1.4244,-1.4242,-1.4237,-1.4257,-1.4257,-1.4278,-1.4279,-1.4279]}]]